DO1MDT Weather Reports


time (UTC)temp
C
wind
direction
speed
KPH
gust
KPH
rain 1hr
cm
rain 24hr
cm
rain mn
cm
humidity
%
barometer
mb
20260506180108 10 0 0.0 6.4 0.08 6.55 6.53 60 1007.0
20260506174559 10 194 1.6 4.8 0.08 6.53 6.50 60 1006.9
20260506173116 10 194 1.6 8.0 0.00 6.48 6.45 60 1007.0
20260506171601 10 195 3.2 11.3 0.00 6.45 6.43 60 1006.9
20260506170058 10 216 1.6 9.7 0.00 6.45 6.43 60 1006.8
20260506164553 10 227 1.6 9.7 0.00 6.45 6.43 60 1006.7
20260506163107 10 0 1.6 9.7 0.00 6.45 6.43 60 1006.6
20260506161557 10 221 4.8 11.3 0.00 6.45 6.43 60 1006.5
20260506160106 10 224 4.8 11.3 0.10 6.45 6.43 60 1006.7
20260506154555 10 225 3.2 9.7 0.28 6.45 6.43 60 1006.6
20260506153055 10 221 3.2 16.1 0.36 6.45 6.43 60 1006.8
20260506151555 10 232 3.2 14.5 0.36 6.45 6.43 60 1006.8
20260506150055 10 244 3.2 11.3 0.28 6.30 6.30 60 1006.8
20260506144554 10 246 3.2 11.3 0.18 6.15 6.12 60 1006.7
20260506143054 10 243 4.8 11.3 0.28 6.10 6.07 60 1006.6
20260506141551 10 235 3.2 14.5 0.28 6.07 6.05 60 1006.6
20260506140053 10 244 1.6 9.7 0.23 6.02 5.99 61 1006.7
20260506134616 10 232 3.2 17.7 0.18 5.94 5.92 61 1006.8
20260506133054 10 229 3.2 11.3 0.03 5.82 5.79 61 1006.8
20260506131609 10 0 3.2 12.9 0.00 5.77 5.74 61 1006.7
20260506130055 10 232 4.8 14.5 0.00 5.77 5.74 61 1006.7
20260506124556 10 227 4.8 11.3 0.00 5.77 5.74 61 1006.7
20260506123057 10 238 4.8 14.5 0.08 5.77 5.74 61 1006.8
20260506121604 10 238 1.6 17.7 0.10 5.77 5.74 61 1006.6
20260506120056 10 234 4.8 11.3 0.10 5.77 5.74 61 1006.4
20260506114556 9 227 3.2 11.3 0.08 5.74 5.71 61 1006.5
20260506113055 9 240 6.4 16.1 0.05 5.69 5.66 62 1006.5
20260506111610 9 227 4.8 9.7 0.03 5.64 5.64 62 1006.7
20260506110055 9 227 3.2 9.7 0.03 5.64 5.64 62 1006.6
20260506104554 9 236 4.8 8.0 0.03 5.64 5.64 62 1006.5
20260506103059 8 225 8.0 16.1 0.00 5.64 5.61 62 1006.5
20260506101554 8 222 4.8 12.9 0.00 5.61 5.59 62 1006.4
20260506100053 8 227 6.4 16.1 0.03 5.61 5.59 63 1006.5
20260506094556 8 226 1.6 9.7 0.08 5.61 5.59 63 1006.4
20260506093059 8 202 4.8 16.1 0.08 5.61 5.59 63 1006.4
20260506091555 8 208 3.2 8.0 0.05 5.59 5.56 62 1006.4
20260506090054 8 213 4.8 14.5 0.03 5.56 5.54 63 1006.2
20260506084553 8 202 3.2 9.7 0.00 5.54 5.51 63 1006.2
20260506083114 8 221 3.2 8.0 0.03 5.54 5.51 63 1006.1
20260506081555 8 221 3.2 9.7 0.05 5.54 5.51 63 1005.9
20260506073054 8 227 1.6 9.7 0.18 5.51 5.46 63 1005.9
20260506071555 8 211 1.6 9.7 0.25 5.49 5.44 63 1005.9
20260506070124 8 221 1.6 6.4 0.23 5.44 5.38 63 1005.9
20260506061558 8 188 0.0 3.2 0.36 5.23 5.18 63 1005.7
20260506050108 8 215 3.2 11.3 0.74 4.90 4.70 64 1005.5
20260506044557 9 211 3.2 9.7 0.66 4.75 4.47 64 1005.6
20260506043104 9 0 3.2 12.9 0.64 4.50 4.22 63 1005.6
20260506041603 9 220 3.2 8.0 0.69 4.37 4.09 63 1005.7
20260506040059 9 242 3.2 11.3 0.71 4.22 3.94 63 1005.8
20260506034600 9 244 3.2 12.9 0.74 4.09 3.78 64 1005.8
20260506033054 10 232 4.8 14.5 0.74 3.86 3.56 64 1006.0
20260506031601 10 0 3.2 8.0 0.69 3.68 3.38 64 1006.1
20260506030059 10 246 3.2 11.3 0.74 3.51 3.20 64 1006.1
20260506024601 10 229 0.0 6.4 0.74 3.38 3.02 64 1006.3
20260506023056 10 229 3.2 6.4 0.76 3.17 2.82 64 1006.3
20260506021558 10 229 3.2 9.7 0.81 3.02 2.69 64 1006.4
20260506020108 10 232 3.2 9.7 0.81 2.82 2.46 64 1006.6
20260506014612 10 237 1.6 8.0 0.76 2.62 2.24 64 1006.5
20260506013056 10 0 0.0 6.4 0.74 2.41 2.06 64 1006.7
20260506011623 10 233 1.6 6.4 0.69 2.24 1.88 65 1006.6
20260506010055 10 232 4.8 12.9 0.64 2.01 1.65 65 1006.9
20260506004602 10 217 4.8 11.3 0.61 1.83 1.47 65 1007.0
20260506003053 10 0 1.6 11.3 0.61 1.68 1.30 65 1007.0
20260506001556 10 228 3.2 17.7 0.61 1.52 1.17 65 1007.2
20260506000118 10 0 1.6 8.0 0.58 1.37 1.02 66 1007.3
20260505234555 10 244 3.2 11.3 0.56 1.22 0.84 66 1007.5
20260505233057 10 226 4.8 12.9 0.51 1.04 0.66 66 1007.6
20260505231604 10 219 4.8 16.1 0.46 0.94 0.56 67 1007.6
20260505230106 10 215 6.4 14.5 0.38 0.79 0.41 67 1007.7
20260505224552 10 241 3.2 9.7 0.28 0.69 0.28 68 1007.8
20260505223055 10 242 4.8 16.1 0.18 0.56 0.15 69 1007.8
20260505221601 11 249 6.4 14.5 0.08 0.48 0.08 69 1007.9
20260505220054 11 236 6.4 17.7 0.00 0.41 0.00 69 1007.9
20260505214556 11 237 6.4 16.1 0.00 0.41 0.38 70 1008.1
20260505213054 11 216 4.8 16.1 0.00 0.41 0.38 70 1008.2
20260505211552 11 236 3.2 16.1 0.00 0.41 0.38 70 1008.2
20260505210055 11 234 3.2 19.3 0.00 0.41 0.38 70 1008.3
20260505204559 11 236 4.8 19.3 0.00 0.58 0.38 70 1008.3
20260505203100 11 223 9.7 20.9 0.00 0.58 0.38 70 1008.5
20260505201554 11 231 6.4 17.7 0.00 0.58 0.38 70 1008.3
20260505200055 11 220 4.8 14.5 0.00 0.58 0.38 71 1008.3
20260505194611 11 219 9.7 16.1 0.00 0.81 0.38 71 1008.3
20260505193053 11 215 1.6 14.5 0.00 0.81 0.38 72 1008.2
20260505191606 11 215 4.8 17.7 0.00 0.81 0.38 72 1008.2
20260505190056 11 209 4.8 16.1 0.00 0.81 0.38 72 1008.2
20260505184558 12 177 3.2 12.9 0.00 1.60 0.38 73 1008.1
20260505183055 12 213 6.4 17.7 0.00 1.60 0.38 73 1008.3
20260505181557 12 213 4.8 12.9 0.00 1.60 0.38 73 1008.2